Date String (YYYY-MM-DD hh:mm:ss) UTC,Instrument flags,Ambient pressure (hPa),Sample flow (lpm),Bypass flow (lpm),Sample temperature (°C),Ambient temperature (°C),ASC tube jacket temperature (°C),LED temperature (°C),Box temperature (°C),Sample RH (%),Span deviation,Mass concentration (μg/m³),Mass concentration (μg/m³),Mass concentration (μg/m³)
DateTimeUTC,F1_M11,P_M11,Q1_M11,Q2_M11,T1_M11,T2_M11,T3_M11,T4_M11,T5_M11,U1_M11,ZSPAN_M11,X0_M11,X2_M11,X1_M11
2022-08-03 09:00:00,,0826.5,5.00,0.00,29.6,28.6,00.0,38.3,31.6,28.2,0000.0,0004.25,0003.04,0002.61
2022-08-03 09:01:00,,0826.5,5.00,0.00,29.6,28.7,00.0,38.4,31.6,28.3,0000.0,0004.37,0003.10,0002.64
2022-08-03 09:02:00,,0826.5,5.00,0.00,29.7,28.7,00.0,38.4,31.7,28.4,0000.0,0004.48,0003.14,0002.66
2022-08-03 09:03:00,,0826.5,5.00,0.00,29.7,28.7,00.0,38.4,31.7,28.3,0000.0,0004.51,0003.15,0002.68
2022-08-03 09:04:00,,0826.5,5.01,0.00,29.7,28.0,00.0,38.4,31.5,28.2,0000.0,0004.46,0003.16,0002.71
2022-08-03 09:05:00,,0826.5,4.98,0.00,29.6,27.3,00.0,38.3,31.3,28.3,0000.0,0004.55,0003.18,0002.75
2022-08-03 09:06:00,,0826.5,5.01,0.00,29.5,27.0,00.0,38.3,31.2,28.4,0000.0,0004.57,0003.20,0002.78
2022-08-03 09:07:00,,0826.6,5.01,0.00,29.4,27.0,00.0,38.3,31.1,28.6,0000.0,0004.58,0003.22,0002.81
2022-08-03 09:08:00,,0826.6,4.98,0.00,29.4,27.1,00.0,38.2,31.1,28.7,0000.0,0004.63,0003.24,0002.84
2022-08-03 09:09:00,,0826.7,5.00,0.00,29.4,27.2,00.0,38.2,31.2,28.7,0000.0,0005.05,0003.25,0002.87
2022-08-03 09:10:00,,0826.7,5.01,0.00,29.4,27.4,00.0,38.2,31.2,28.6,0000.0,0005.14,0003.25,0002.88
2022-08-03 09:11:00,,0826.7,4.99,0.00,29.4,27.6,00.0,38.2,31.2,28.5,0000.0,0005.05,0003.25,0002.87
2022-08-03 09:12:00,,0826.7,5.00,0.00,29.4,27.7,00.0,38.2,31.3,28.5,0000.0,0005.01,0003.24,0002.89
2022-08-03 09:13:00,,0826.7,5.00,0.00,29.4,27.9,00.0,38.2,31.3,28.6,0000.0,0005.64,0003.21,0002.90
2022-08-03 09:14:00,,0826.6,5.00,0.00,29.4,28.0,00.0,38.2,31.3,28.6,0000.0,0005.87,0003.21,0002.91
2022-08-03 09:15:00,,0826.6,5.00,0.00,29.4,28.1,00.0,38.2,31.3,28.4,0000.0,0005.99,0003.23,0002.92
2022-08-03 09:16:00,,0826.6,5.00,0.00,29.4,28.2,00.0,38.2,31.4,28.5,0000.0,0006.00,0003.23,0002.93
2022-08-03 09:17:00,,0826.5,5.01,0.00,29.5,28.3,00.0,38.2,31.4,28.3,0000.0,0005.96,0003.23,0002.95
2022-08-03 09:18:00,,0826.5,5.00,0.00,29.5,28.4,00.0,38.3,31.4,28.4,0000.0,0005.85,0003.20,0002.94
2022-08-03 09:19:00,,0826.5,5.00,0.00,29.5,28.5,00.0,38.3,31.5,28.3,0000.0,0005.91,0003.22,0002.96
2022-08-03 09:20:00,,0826.5,5.00,0.00,29.5,28.5,00.0,38.3,31.5,28.1,0000.0,0005.51,0003.24,0002.99
2022-08-03 09:21:00,,0826.5,5.00,0.00,29.6,28.6,00.0,38.3,31.6,28.0,0000.0,0005.38,0003.26,0003.00
2022-08-03 09:22:00,,0826.5,5.01,0.00,29.6,28.6,00.0,38.3,31.6,27.8,0000.0,0005.43,0003.28,0003.03
2022-08-03 09:23:00,,0826.5,4.98,0.00,29.6,28.7,00.0,38.4,31.6,27.9,0000.0,0005.46,0003.29,0003.05
2022-08-03 09:24:00,,0826.5,5.01,0.00,29.7,28.7,00.0,38.4,31.6,27.7,0000.0,0004.89,0003.34,0003.07
2022-08-03 09:25:00,,0826.5,5.00,0.00,29.7,28.8,00.0,38.4,31.7,27.8,0000.0,0004.85,0003.37,0003.10
2022-08-03 09:26:00,,0826.5,5.00,0.00,29.7,28.8,00.0,38.4,31.7,27.8,0000.0,0004.74,0003.36,0003.11
2022-08-03 09:27:00,,0826.5,5.01,0.00,29.7,28.5,00.0,38.4,31.6,27.9,0000.0,0004.56,0003.35,0003.11
2022-08-03 09:28:00,,0826.5,4.99,0.00,29.7,27.8,00.0,38.4,31.5,27.5,0000.0,0004.57,0003.37,0003.13
2022-08-03 09:29:00,,0826.7,5.01,0.00,29.7,27.5,00.0,38.4,31.5,27.7,0000.0,0004.55,0003.39,0003.16
2022-08-03 09:30:00,,0826.7,4.98,0.00,29.6,27.5,00.0,38.4,31.4,27.9,0000.0,0004.57,0003.40,0003.18
2022-08-03 09:31:00,,0826.6,5.01,0.00,29.6,27.6,00.0,38.4,31.4,27.8,0000.0,0004.64,0003.42,0003.18
2022-08-03 09:32:00,,0826.7,4.99,0.00,29.6,27.8,00.0,38.4,31.4,27.7,0000.0,0004.71,0003.43,0003.19
2022-08-03 09:33:00,,0826.7,5.01,0.00,29.5,27.9,00.0,38.4,31.4,27.7,0000.0,0004.67,0003.43,0003.20
2022-08-03 09:34:00,,0826.7,5.00,0.00,29.6,28.0,00.0,38.4,31.4,27.7,0000.0,0004.62,0003.42,0003.20
2022-08-03 09:35:00,,0826.7,4.99,0.00,29.6,28.1,00.0,38.4,31.5,27.6,0000.0,0004.60,0003.40,0003.20
2022-08-03 09:36:00,,0826.7,4.99,0.00,29.6,28.3,00.0,38.4,31.5,27.6,0000.0,0004.53,0003.39,0003.20
2022-08-03 09:37:00,,0826.7,5.00,0.00,29.6,28.4,00.0,38.4,31.5,27.5,0000.0,0004.59,0003.41,0003.20
2022-08-03 09:38:00,,0826.7,5.00,0.00,29.6,28.5,00.0,38.4,31.6,28.0,0000.0,0004.73,0003.44,0003.21
2022-08-03 09:39:00,,0826.7,5.00,0.00,29.7,28.6,00.0,38.4,31.7,28.5,0000.0,0004.82,0003.45,0003.21
2022-08-03 09:40:00,,0826.7,4.99,0.00,29.7,28.6,00.0,38.4,31.7,28.7,0000.0,0004.88,0003.45,0003.20
2022-08-03 09:41:00,,0826.7,5.00,0.00,29.7,28.7,00.0,38.4,31.7,28.7,0000.0,0004.82,0003.43,0003.18
2022-08-03 09:42:00,,0826.6,5.00,0.00,29.7,28.8,00.0,38.5,31.7,28.3,0000.0,0004.70,0003.40,0003.18
2022-08-03 09:43:00,,0826.7,5.01,0.00,29.8,28.8,00.0,38.5,31.8,28.2,0000.0,0004.65,0003.38,0003.16
2022-08-03 09:44:00,,0826.7,5.00,0.00,29.8,28.9,00.0,38.5,31.8,28.1,0000.0,0004.69,0003.38,0003.15
2022-08-03 09:45:00,,0826.7,5.00,0.00,29.8,28.9,00.0,38.5,31.8,27.9,0000.0,0004.76,0003.39,0003.15
2022-08-03 09:46:00,,0826.7,5.00,0.00,29.8,28.3,00.0,38.5,31.7,27.7,0000.0,0004.63,0003.38,0003.15
2022-08-03 09:47:00,,0826.7,5.01,0.00,29.8,27.8,00.0,38.5,31.5,27.9,0000.0,0004.49,0003.35,0003.14
2022-08-03 09:48:00,,0826.7,4.99,0.00,29.7,27.6,00.0,38.5,31.5,28.1,0000.0,0004.88,0003.32,0003.13
2022-08-03 09:49:00,,0826.7,5.01,0.00,29.7,27.7,00.0,38.5,31.5,28.1,0000.0,0004.84,0003.28,0003.10
2022-08-03 09:50:00,,0826.7,4.99,0.00,29.6,27.8,00.0,38.5,31.4,28.0,0000.0,0004.72,0003.24,0003.06
2022-08-03 09:51:00,,0826.7,5.00,0.00,29.6,27.9,00.0,38.4,31.5,27.9,0000.0,0004.68,0003.22,0003.02
2022-08-03 09:52:00,,0826.7,5.01,0.00,29.6,28.0,00.0,38.4,31.5,27.9,0000.0,0004.69,0003.21,0003.00
2022-08-03 09:53:00,,0826.7,5.00,0.00,29.6,28.2,00.0,38.5,31.5,27.9,0000.0,0004.70,0003.20,0002.98
2022-08-03 09:54:00,,0826.7,4.99,0.00,29.6,28.3,00.0,38.5,31.6,27.9,0000.0,0004.71,0003.21,0002.98
2022-08-03 09:55:00,,0826.7,5.00,0.00,29.7,28.4,00.0,38.5,31.6,27.9,0000.0,0004.66,0003.20,0002.98
2022-08-03 09:56:00,,0826.7,5.00,0.00,29.7,28.5,00.0,38.5,31.7,27.7,0000.0,0004.64,0003.20,0002.97
2022-08-03 09:57:00,,0826.7,4.99,0.00,29.7,28.6,00.0,38.5,31.7,27.6,0000.0,0004.66,0003.20,0002.96
2022-08-03 09:58:00,,0826.7,5.00,0.00,29.7,28.7,00.0,38.5,31.7,27.2,0000.0,0004.72,0003.21,0002.95
2022-08-03 09:59:00,,0826.7,5.01,0.00,29.8,28.7,00.0,38.5,31.7,27.4,0000.0,0004.35,0003.22,0002.95
